TimeCST,TemperatureF,Dew PointF,Humidity,Sea Level PressureIn,VisibilityMPH,Wind Direction,Wind SpeedMPH,Gust SpeedMPH,PrecipitationIn,Events,Conditions,WindDirDegrees,DateUTC
12:10 AM,24.8,24.8,100,30.42,7.0,Calm,Calm,-,N/A,,Mostly Cloudy,0,2013-12-11 06:10:00
12:30 AM,24.8,23.0,93,30.42,2.5,Calm,Calm,-,N/A,,Partly Cloudy,0,2013-12-11 06:30:00
12:50 AM,24.8,23.0,93,30.41,7.0,Calm,Calm,-,N/A,,Clear,0,2013-12-11 06:50:00
1:10 AM,24.8,23.0,93,30.41,10.0,Calm,Calm,-,N/A,,Clear,0,2013-12-11 07:10:00
1:30 AM,24.8,23.0,93,30.41,10.0,Calm,Calm,-,N/A,,Clear,0,2013-12-11 07:30:00
1:50 AM,24.8,23.0,93,30.41,9.0,Calm,Calm,-,N/A,,Clear,0,2013-12-11 07:50:00
2:10 AM,24.8,23.0,93,30.41,10.0,Calm,Calm,-,N/A,,Clear,0,2013-12-11 08:10:00
2:30 AM,23.0,21.2,93,30.41,10.0,SSE,4.6,-,N/A,,Clear,150,2013-12-11 08:30:00
2:50 AM,23.0,21.2,93,30.40,10.0,SE,3.5,-,N/A,,Clear,140,2013-12-11 08:50:00
3:10 AM,23.0,19.4,86,30.41,10.0,Calm,Calm,-,N/A,,Mostly Cloudy,0,2013-12-11 09:10:00
3:30 AM,23.0,21.2,93,30.41,10.0,Calm,Calm,-,N/A,,Mostly Cloudy,0,2013-12-11 09:30:00
3:50 AM,23.0,21.2,93,30.41,10.0,Calm,Calm,-,N/A,,Mostly Cloudy,0,2013-12-11 09:50:00
4:10 AM,23.0,19.4,86,30.41,10.0,Calm,Calm,-,N/A,,Mostly Cloudy,0,2013-12-11 10:10:00
4:30 AM,23.0,21.2,93,30.41,10.0,Calm,Calm,-,N/A,,Scattered Clouds,0,2013-12-11 10:30:00
4:50 AM,23.0,19.4,86,30.41,10.0,Calm,Calm,-,N/A,,Clear,0,2013-12-11 10:50:00
5:10 AM,23.0,19.4,86,30.42,10.0,Calm,Calm,-,N/A,,Clear,0,2013-12-11 11:10:00
5:30 AM,23.0,19.4,86,30.42,10.0,SSE,3.5,-,N/A,,Clear,150,2013-12-11 11:30:00
5:50 AM,23.0,19.4,86,30.42,10.0,Calm,Calm,-,N/A,,Clear,0,2013-12-11 11:50:00
6:10 AM,21.2,19.4,93,30.43,10.0,WNW,3.5,-,N/A,,Clear,290,2013-12-11 12:10:00
6:30 AM,21.2,19.4,93,30.44,10.0,Calm,Calm,-,N/A,,Clear,0,2013-12-11 12:30:00
6:50 AM,21.2,19.4,93,30.44,10.0,Calm,Calm,-,N/A,,Clear,0,2013-12-11 12:50:00
7:10 AM,23.0,19.4,86,30.44,10.0,Calm,Calm,-,N/A,,Clear,0,2013-12-11 13:10:00
7:30 AM,23.0,19.4,86,30.44,10.0,Calm,Calm,-,N/A,,Clear,0,2013-12-11 13:30:00
7:50 AM,24.8,23.0,93,30.45,10.0,Calm,Calm,-,N/A,,Clear,0,2013-12-11 13:50:00
8:10 AM,26.6,24.8,93,30.46,10.0,Calm,Calm,-,N/A,,Clear,0,2013-12-11 14:10:00
8:30 AM,28.4,24.8,86,30.47,9.0,NNW,3.5,-,N/A,,Clear,330,2013-12-11 14:30:00
8:50 AM,28.4,26.6,93,30.48,8.0,Calm,Calm,-,N/A,,Clear,0,2013-12-11 14:50:00
9:10 AM,32.0,28.4,87,30.48,8.0,Calm,Calm,-,N/A,,Clear,0,2013-12-11 15:10:00
9:30 AM,32.0,28.4,87,30.48,8.0,Calm,Calm,-,N/A,,Clear,0,2013-12-11 15:30:00
9:50 AM,33.8,30.2,87,30.48,9.0,Calm,Calm,-,N/A,,Clear,0,2013-12-11 15:50:00
10:10 AM,35.6,32.0,87,30.49,10.0,Calm,Calm,-,N/A,,Clear,0,2013-12-11 16:10:00
10:30 AM,37.4,32.0,81,30.48,0.2,Calm,Calm,-,N/A,,Haze,0,2013-12-11 16:30:00
10:50 AM,41.0,32.0,70,30.48,10.0,West,4.6,-,0.02,,Clear,280,2013-12-11 16:50:00
11:10 AM,-9999,-9999,N/A,30.46,-9999.0,WNW,5.8,-,N/A,,Unknown,290,2013-12-11 17:10:00
11:30 AM,-9999,-9999,N/A,30.45,-9999.0,North,-9999.0,-,N/A,,Unknown,0,2013-12-11 17:30:00
11:50 AM,44.6,32.0,61,30.44,10.0,North,3.5,-,N/A,,Clear,350,2013-12-11 17:50:00
12:10 PM,42.8,32.0,66,30.43,10.0,Calm,Calm,-,N/A,,Unknown,0,2013-12-11 18:10:00
12:35 PM,44.6,30.2,57,30.43,10.0,NW,9.2,-,N/A,,Clear,310,2013-12-11 18:35:00
12:55 PM,46.4,28.4,50,30.43,10.0,WNW,8.1,-,N/A,,Clear,290,2013-12-11 18:55:00
1:15 PM,46.4,28.4,50,30.41,10.0,WSW,5.8,-,N/A,,Clear,250,2013-12-11 19:15:00
1:35 PM,46.4,28.4,50,30.41,10.0,Calm,Calm,-,N/A,,Clear,0,2013-12-11 19:35:00
1:55 PM,48.2,26.6,43,30.40,10.0,WNW,3.5,-,N/A,,Clear,300,2013-12-11 19:55:00
2:15 PM,48.2,24.8,40,30.40,10.0,West,4.6,-,N/A,,Clear,270,2013-12-11 20:15:00
2:35 PM,48.2,24.8,40,30.40,10.0,WNW,8.1,-,N/A,,Clear,290,2013-12-11 20:35:00
2:55 PM,50.0,24.8,37,30.40,10.0,NW,9.2,-,N/A,,Clear,310,2013-12-11 20:55:00
3:15 PM,48.2,24.8,40,30.40,10.0,NNW,6.9,-,N/A,,Clear,330,2013-12-11 21:15:00
3:35 PM,48.2,26.6,43,30.41,10.0,WNW,9.2,-,N/A,,Clear,300,2013-12-11 21:35:00
3:55 PM,46.4,26.6,46,30.42,10.0,NW,9.2,-,N/A,,Clear,320,2013-12-11 21:55:00
4:15 PM,44.6,26.6,49,30.43,10.0,NNW,9.2,17.3,N/A,,Clear,340,2013-12-11 22:15:00
4:35 PM,44.6,26.6,49,30.43,10.0,NNW,8.1,-,N/A,,Clear,330,2013-12-11 22:35:00
4:55 PM,42.8,26.6,53,30.43,10.0,NNW,5.8,-,N/A,,Clear,340,2013-12-11 22:55:00
5:15 PM,41.0,26.6,57,30.44,10.0,NNW,5.8,-,N/A,,Clear,330,2013-12-11 23:15:00
5:35 PM,39.2,26.6,61,30.45,10.0,NNW,5.8,-,N/A,,Clear,330,2013-12-11 23:35:00
5:55 PM,39.2,26.6,61,30.46,10.0,NNW,4.6,-,N/A,,Clear,340,2013-12-11 23:55:00
6:15 PM,37.4,26.6,65,30.46,10.0,NNW,4.6,-,N/A,,Clear,340,2013-12-12 00:15:00
6:35 PM,37.4,26.6,65,30.46,10.0,NNW,4.6,-,N/A,,Clear,330,2013-12-12 00:35:00
6:55 PM,35.6,26.6,70,30.47,10.0,NNW,4.6,-,N/A,,Clear,340,2013-12-12 00:55:00
7:15 PM,35.6,26.6,70,30.47,10.0,NNW,4.6,-,N/A,,Clear,330,2013-12-12 01:15:00
7:35 PM,35.6,26.6,70,30.48,10.0,NNW,5.8,-,N/A,,Clear,330,2013-12-12 01:35:00
7:55 PM,33.8,26.6,75,30.48,10.0,NNW,5.8,-,N/A,,Clear,340,2013-12-12 01:55:00
8:15 PM,33.8,26.6,75,30.48,10.0,NNW,6.9,-,N/A,,Clear,340,2013-12-12 02:15:00
8:35 PM,33.8,26.6,75,30.49,10.0,North,9.2,-,N/A,,Clear,350,2013-12-12 02:35:00
8:55 PM,33.8,26.6,75,30.50,10.0,North,8.1,-,N/A,,Clear,350,2013-12-12 02:55:00
9:15 PM,32.0,26.6,80,30.50,10.0,North,8.1,-,N/A,,Clear,350,2013-12-12 03:15:00
9:35 PM,32.0,24.8,75,30.51,10.0,North,9.2,-,N/A,,Clear,350,2013-12-12 03:35:00
9:55 PM,32.0,24.8,75,30.53,10.0,North,8.1,-,N/A,,Clear,350,2013-12-12 03:55:00
10:15 PM,32.0,24.8,75,30.54,10.0,NNW,6.9,-,N/A,,Clear,340,2013-12-12 04:15:00
10:35 PM,32.0,24.8,75,30.55,10.0,NNW,8.1,-,N/A,,Clear,340,2013-12-12 04:35:00
10:55 PM,32.0,24.8,75,30.55,10.0,North,6.9,-,N/A,,Clear,350,2013-12-12 04:55:00
11:15 PM,30.2,24.8,80,30.56,10.0,North,6.9,-,N/A,,Clear,350,2013-12-12 05:15:00
11:35 PM,30.2,24.8,80,30.56,10.0,North,5.8,-,N/A,,Clear,360,2013-12-12 05:35:00
11:55 PM,30.2,23.0,75,30.55,10.0,North,6.9,-,N/A,,Clear,360,2013-12-12 05:55:00